Hourly Data Report for September 13, 2017

All times are specified in Local Standard Time (LST). Add 1 hour to adjust for Daylight Saving Time where and when it is observed.

SANDY LAKE A
ONTARIO

53°03'51.000" N
93°20'40.000" W
289.90 m
6017401
71587
ZSJ

Download Data

Hourly Data (September 2017)
Hourly Data Report for September 13, 2017
Temp Definition
°C
Dew Point Temp Definition
°C
Rel Hum Definition
%
Wind Dir Definition
10's deg

Wind Spd Definition
km/h
Visibility Definition
km
Stn Press Definition
kPa
Hmdx Definition


Wind Chill Definition


Weather Definition


TIME
00:00 Legend Double Dagger 10.4 5.8 73 3 11 16.1 97.43     LegendNANA
01:00 Legend Double Dagger 8.8 5.2 78 3 8 16.1 97.48     LegendNANA
02:00 Legend Double Dagger 7.4 4.7 83 1 9 16.1 97.52     LegendNANA
03:00 Legend Double Dagger 6.4 4.2 86 2 11 16.1 97.59     LegendNANA
04:00 Legend Double Dagger 5.6 3.9 89 2 8 16.1 97.64     LegendNANA
05:00 Legend Double Dagger 5.0 3.8 92 6 8 16.1 97.70     LegendNANA
06:00 Legend Double Dagger 4.7 3.5 92 2 8 16.1 97.79     LegendNANA
07:00 Legend Double Dagger 5.5 3.5 87 5 8 16.1 97.79     LegendNANA
08:00 Legend Double Dagger 6.8 3.6 80 6 8 16.1 97.81     LegendNANA
09:00 Legend Double Dagger 9.8 3.8 66 1 11 16.1 97.83     LegendNANA
10:00 Legend Double Dagger 11.4 3.0 56 4 15 16.1 97.79     LegendNANA
11:00 Legend Double Dagger 11.7 3.3 56 4 11 16.1 97.79     LegendNANA
12:00 Legend Double Dagger 13.0 4.0 54 36 9 16.1 97.75     LegendNANA
13:00 Legend Double Dagger 13.4 3.3 50 33 13 16.1 97.76     LegendNANA
14:00 Legend Double Dagger 12.5 2.0 49 35 13 16.1 97.80     LegendNANA
15:00 Legend Double Dagger 12.0 1.4 48 36 11 16.1 97.78     LegendNANA
16:00 Legend Double Dagger 12.0 0.6 46 1 15 16.1 97.80     LegendNANA
17:00 Legend Double Dagger 11.1 0.9 49 2 9 16.1 97.81     LegendNANA
18:00 Legend Double Dagger 10.5 1.8 55 4 5 16.1 97.83     LegendNANA
19:00 Legend Double Dagger 9.4 2.4 61 3 8 16.1 97.85     LegendNANA
20:00 Legend Double Dagger 8.8 2.4 64 4 8 16.1 97.84     LegendNANA
21:00 Legend Double Dagger 8.3 2.7 68 6 5 16.1 97.86     LegendNANA
22:00 Legend Double Dagger 8.1 2.2 66 5 9 12.9 97.85     LegendNANA
23:00 Legend Double Dagger 7.6 2.9 72 6 8 12.9 97.85     LegendNANA

Notes on Data Quality.

Legend

  • E = Estimated
  • M = Missing
  • NA = Not Available
  • ‡ = Partner data that is not subject to review by the National Climate Archives
Date modified: